STARLINK-33929 (64188 NORAD) Tracking and Keplerian Element Data

This shows tracking and keplerian element data for the satellite.

Feedback or suggestion? Click here.




ElementValue
Catalog64188
NameSTARLINK-33929
Epoch Orbit3286
Epoch Day354.00049274
Epoch Year2025
RAAN101.3265
Inclination53.158
Eccentricity3.38E-05
Argument of Perigee183.91
Mean Anonmoly176.1899
Mean Motion15.30211987
Decay Rate0.00017331
L11 64188U 25113U 25354.00049274 .00017331 00000+0 59566-3 0 9992
L22 64188 53.1580 101.3265 0000338 183.9100 176.1899 15.30211987 32862



Live tracking and technical data element details for STARLINK-33929 (NORAD 64188). STARLINK-33929 can be tracked NOW for your location showing map with azimuth and elevation plus other details from your city location.







IsCatalogInMostPopularTable: catalog: 64188, numindb: 5
Update: records affected: 1



GetName: 64188 STARLINK-33929

Hit Count: updated at: Wed, 11 Feb 2026 15:20:02 GMT